Wind_Speed
62 66 68 72 74 71 68 66 67 67 68 68 70 71 72 71 64 56 53 52 50 47 47 49 51 55 60 65 69 71 71 71 70 70 72 72 71 70 68 66 64 64 63 63 64 64 63 61 60 58 55 53 52 51 51 49 47 44 43 43 42 43 45 45 44 43 41 40 39 37 36 34 33 33
63 68 71 73 73 70 68 68 68 69 68 69 71 72 74 74 69 59 54 54 53 50 49 50 50 52 55 59 64 69 71 72 72 71 72 72 73 73 71 70 68 67 66 65 66 66 66 64 62 60 58 56 55 53 53 52 50 47 45 44 44 44 45 45 45 44 43 42 41 40 39 38 36 35
66 71 72 73 71 69 69 69 70 70 70 70 72 74 75 76 74 64 55 54 54 52 51 52 52 52 53 55 58 63 68 71 73 74 74 73 73 74 74 74 72 70 68 67 67 67 68 67 65 63 61 60 58 57 55 54 53 50 48 47 45 44 44 44 45 45 45 44 43 43 42 41 39 38
70 72 71 70 69 69 70 72 72 71 72 73 75 77 77 78 78 69 59 55 54 53 51 53 55 54 53 54 54 57 62 66 70 74 76 75 73 74 75 76 76 74 72 70 68 68 69 69 68 66 64 62 61 60 58 56 55 54 51 49 48 45 44 44 44 45 45 45 45 44 44 44 43 41
71 71 70 70 70 71 72 73 73 73 74 76 77 79 80 80 80 74 63 56 53 53 53 52 55 56 56 55 53 53 57 61 65 70 75 77 76 75 75 77 78 77 75 73 71 69 69 69 69 67 67 65 63 61 61 59 58 56 54 51 50 47 45 44 44 44 45 45 45 45 45 45 45 44
71 71 72 72 71 73 74 75 75 76 77 79 80 82 83 83 83 78 67 58 52 52 54 54 54 56 56 56 54 53 54 56 59 64 70 75 78 78 77 77 79 80 79 77 74 72 70 69 69 68 67 67 65 63 62 61 60 59 56 54 52 49 47 45 44 43 44 45 45 45 45 45 46 46
71 73 74 74 74 75 76 77 78 79 80 81 83 84 85 87 87 81 69 59 50 49 54 56 56 56 56 55 54 54 54 54 55 58 64 70 75 79 80 79 79 80 82 81 78 76 73 71 70 69 68 67 67 65 64 63 62 61 59 56 54 52 49 47 45 44 43 44 44 45 46 45 46 46
73 75 75 76 76 76 77 79 80 81 82 83 85 86 87 90 91 84 73 61 50 46 50 55 57 57 57 55 53 52 54 55 54 54 58 63 70 77 81 82 81 81 82 83 82 80 76 74 71 70 68 68 68 67 66 64 63 63 62 60 57 55 52 50 48 46 44 43 43 44 45 45 45 45
75 76 77 78 78 78 79 81 83 84 84 86 88 88 91 95 94 85 75 63 51 45 46 52 58 59 58 56 53 50 52 56 56 54 54 59 65 72 78 82 84 83 81 83 84 83 80 77 75 72 70 68 68 69 68 66 65 64 64 63 60 58 56 53 51 49 47 45 44 43 44 44 44 45
78 79 80 80 80 80 81 83 84 85 87 89 91 92 96 100 96 86 76 65 53 45 45 49 56 59 59 57 54 50 50 55 57 54 54 56 61 67 73 78 83 85 83 82 83 85 84 81 79 76 73 70 69 69 69 68 67 66 65 65 63 61 58 57 55 52 50 48 46 45 44 44 44 44
82 83 82 82 82 83 83 84 85 88 90 92 94 97 102 103 97 85 75 64 53 46 45 48 53 57 59 58 55 52 50 52 56 56 54 55 57 60 66 73 79 84 84 83 82 84 85 85 82 80 77 74 71 70 69 69 68 68 67 66 65 63 61 60 58 56 53 50 49 48 47 46 45 45
86 86 85 85 85 85 85 86 88 91 93 95 99 104 107 104 95 84 73 62 52 46 45 48 52 54 58 58 55 53 52 51 54 56 56 55 54 55 61 68 74 80 83 84 82 82 84 86 85 83 81 77 74 72 70 69 69 69 69 67 67 65 63 61 60 58 56 53 50 50 49 48 47 46
90 89 87 86 85 85 86 87 91 94 96 100 105 109 108 101 91 81 70 59 51 48 47 49 51 52 55 57 55 54 54 52 52 54 56 57 55 54 57 63 70 75 79 82 83 82 83 84 85 85 84 81 78 75 72 70 69 70 70 68 67 66 65 62 61 60 58 54 51 50 50 49 48 48
92 90 88 86 85 86 87 91 95 98 101 105 109 109 105 97 87 77 68 58 52 51 51 50 50 51 53 55 55 54 55 54 53 53 55 59 58 55 54 59 65 71 75 78 81 83 83 82 83 84 85 85 82 78 75 72 70 70 71 70 68 68 66 64 62 61 59 56 52 50 49 48 48 47
91 89 87 86 87 88 92 96 100 103 107 110 110 106 100 93 84 75 66 60 56 55 53 50 49 49 50 52 54 55 55 55 54 53 54 58 60 58 55 56 61 67 70 73 78 83 84 81 81 82 84 85 85 81 77 75 73 71 71 71 70 69 68 66 63 61 59 57 53 51 49 48 47 47
89 87 86 86 89 94 99 104 106 109 110 110 106 101 95 88 81 74 67 63 61 58 54 50 49 48 47 50 53 54 54 55 55 54 54 57 59 59 58 58 61 64 66 67 73 81 83 80 79 81 82 83 85 84 81 78 76 73 72 72 71 70 69 67 65 62 60 58 55 52 50 49 48 47
87 85 86 90 96 102 106 108 110 110 110 107 102 95 89 85 81 75 69 65 62 59 54 50 48 47 45 47 51 53 54 55 56 55 55 56 57 57 59 62 63 63 60 62 68 77 82 80 77 79 81 81 83 84 84 82 79 76 74 73 72 72 71 69 66 64 62 59 57 54 51 49 48 47
87 88 92 97 104 108 110 110 110 109 106 102 94 88 87 86 82 76 70 65 61 57 53 49 47 46 45 44 48 52 53 54 55 56 56 56 55 56 59 63 66 63 56 57 64 74 81 79 76 79 82 81 81 82 83 85 83 80 76 74 72 72 72 70 68 65 63 61 58 55 52 50 48 47
91 94 99 105 108 110 111 111 108 105 100 93 86 86 87 86 82 76 70 65 59 55 51 47 45 44 45 43 45 49 51 52 54 56 57 57 54 55 59 64 67 64 56 54 60 71 79 78 74 79 82 80 79 80 80 83 85 83 80 76 74 73 72 71 69 66 65 63 59 56 53 51 49 47
96 100 104 107 109 110 110 109 105 99 92 86 84 86 88 85 81 76 70 64 58 53 49 46 43 43 43 44 43 45 48 50 53 54 56 56 54 55 59 63 67 66 60 56 58 66 76 78 75 79 81 77 77 79 79 80 83 85 83 79 76 74 73 72 70 68 66 64 60 57 54 51 49 48
100 104 106 108 109 110 108 105 99 92 86 84 85 87 86 84 80 74 69 63 58 53 48 44 42 41 42 42 42 43 44 47 50 52 54 54 53 54 57 61 66 67 63 60 58 62 72 77 76 78 80 76 75 77 78 78 80 83 85 83 79 76 74 72 71 69 68 65 62 59 55 52 51 49
103 106 108 109 109 108 105 100 94 88 85 85 85 85 83 81 77 72 67 63 57 52 47 42 40 40 40 40 40 40 42 44 47 49 50 51 51 53 56 59 64 67 65 61 59 63 71 76 77 79 80 77 75 76 78 79 78 80 84 85 82 78 75 73 72 70 69 67 64 60 57 54 52 49
108 109 110 109 107 105 101 95 90 86 85 84 83 82 81 78 74 70 65 60 55 50 45 40 38 38 38 37 38 38 40 42 44 45 46 47 49 51 54 57 61 66 65 61 61 68 73 74 77 80 80 79 79 78 78 79 78 78 82 85 85 81 77 74 72 71 70 68 65 62 59 55 53 50
110 111 109 107 104 101 96 90 86 86 84 82 81 80 77 74 71 67 62 57 52 48 44 39 36 35 35 35 35 36 38 40 40 41 43 45 47 49 51 54 57 63 64 60 62 70 75 74 75 79 80 82 82 81 79 79 79 78 80 84 86 84 79 76 73 72 71 70 66 64 61 57 53 52
109 107 105 103 100 95 90 86 85 84 82 81 80 77 74 70 66 62 57 53 48 45 42 38 35 33 32 32 33 35 37 37 37 38 40 43 45 46 48 51 54 58 60 59 61 68 74 74 74 77 81 84 85 84 81 80 79 77 78 82 86 86 82 77 75 73 72 71 68 65 63 58 55 55
105 103 101 98 94 90 87 86 85 83 82 81 79 75 70 66 61 56 53 50 45 42 39 36 33 31 30 30 31 33 34 34 35 36 38 40 42 42 44 47 50 54 56 55 57 64 71 74 73 75 80 85 87 86 84 82 80 78 77 80 85 87 84 79 75 74 73 72 69 67 65 61 58 58
101 99 96 93 90 88 88 87 85 84 82 80 76 72 66 61 56 52 49 46 43 40 36 34 32 30 29 29 30 31 32 32 33 34 35 36 37 38 40 42 45 48 50 50 53 60 67 71 72 75 79 84 87 86 86 84 82 79 78 80 84 87 85 80 76 74 73 72 71 68 66 63 60 58
96 95 92 90 89 89 88 87 86 84 81 78 74 68 62 57 52 49 45 42 40 37 34 31 30 28 28 28 29 29 29 29 30 31 32 32 33 34 35 37 40 42 44 45 49 56 63 67 70 74 79 83 86 87 87 86 83 80 78 79 82 86 86 82 77 75 74 73 71 69 66 64 61 59
92 91 91 90 90 90 90 89 87 84 79 75 71 65 59 53 49 45 42 39 36 34 32 29 28 27 27 27 27 27 27 27 27 28 29 28 28 29 31 33 36 38 40 41 46 53 59 63 66 72 78 83 85 86 87 87 85 81 79 78 81 85 86 83 78 75 74 73 73 70 68 66 64 61
89 90 90 91 91 91 91 89 86 82 77 73 68 61 55 50 46 42 39 36 34 32 30 27 26 26 25 25 25 25 25 24 24 25 26 25 25 27 29 31 33 35 37 39 44 51 56 60 63 68 76 82 84 85 86 86 84 82 79 77 79 83 85 83 79 75 74 74 74 72 69 67 65 61
89 90 91 92 92 92 90 88 84 79 75 69 63 57 52 48 43 39 36 33 31 29 28 26 25 24 24 23 23 23 22 21 22 23 23 22 23 25 27 28 31 33 35 37 42 49 54 58 61 65 73 80 83 85 85 84 84 82 80 77 78 82 85 84 80 76 75 75 75 72 69 67 64 61
90 91 92 92 92 90 88 85 81 77 72 65 58 52 49 45 40 36 33 31 29 28 26 25 23 23 22 22 22 22 20 20 22 22 22 22 22 22 24 26 29 32 34 37 41 47 52 55 59 63 69 76 81 83 84 84 84 83 81 78 79 82 86 85 81 77 76 75 74 72 69 67 65 63
91 91 91 91 89 87 84 82 78 74 68 61 54 49 46 42 37 34 31 29 28 27 25 23 22 21 21 22 22 21 20 20 22 22 21 21 20 21 23 26 27 30 33 37 41 46 50 53 57 61 67 74 79 82 83 84 84 84 82 80 79 83 86 86 83 79 76 75 74 72 70 69 67 65
91 91 90 88 86 84 81 78 74 69 63 56 51 47 44 39 35 32 30 28 26 25 24 23 21 21 22 23 22 21 20 20 21 22 21 20 20 22 24 26 26 28 32 36 40 45 49 52 56 60 65 71 77 81 83 84 84 84 83 82 81 83 87 87 84 80 78 77 76 75 73 71 69 68
90 89 87 84 82 80 77 73 69 63 58 53 48 45 42 37 33 31 29 27 26 24 24 22 21 21 24 24 23 22 21 21 22 22 21 21 21 23 25 26 26 28 31 35 39 44 49 52 56 60 65 70 74 78 82 84 85 85 84 83 83 85 87 87 84 81 79 79 78 77 75 72 71 70
87 84 82 80 78 75 71 67 63 59 55 50 46 42 39 35 32 29 28 26 25 24 24 22 22 23 26 26 25 24 23 22 23 23 22 22 23 25 27 27 26 27 30 34 39 44 49 53 56 60 64 68 72 76 80 83 85 86 86 86 86 87 88 88 86 83 81 79 77 76 76 74 72 71
82 79 77 75 72 68 65 62 59 55 51 47 43 40 37 34 31 29 27 26 24 24 24 23 23 25 28 28 27 26 24 23 24 24 23 23 25 27 28 28 26 26 28 32 37 43 48 52 56 59 63 67 71 75 79 82 85 85 86 87 87 87 88 88 87 84 81 78 75 74 75 75 74 73
77 75 73 70 66 63 60 58 55 52 48 44 40 37 35 33 30 28 27 26 25 24 25 24 25 28 30 30 29 27 26 25 25 25 25 25 27 28 29 29 27 25 27 31 35 41 47 52 55 59 63 67 70 73 76 80 82 83 85 87 87 87 87 88 87 84 80 77 75 73 73 74 74 73
74 71 69 66 62 59 57 55 52 49 46 42 38 34 32 31 30 28 27 26 25 26 26 26 27 30 32 32 30 29 28 27 27 26 26 27 29 29 29 29 27 24 25 30 34 39 45 50 55 59 63 67 70 73 77 78 79 81 84 87 88 88 89 88 87 84 80 77 75 73 72 72 73 72
70 67 64 61 58 55 53 51 48 46 43 39 36 33 31 30 29 28 27 26 26 27 27 28 30 33 34 34 32 30 29 28 28 27 27 28 31 31 30 29 26 22 22 27 32 37 42 48 54 59 64 68 72 75 78 79 80 82 84 87 87 88 89 90 88 85 81 78 74 71 68 67 69 70
65 62 59 57 54 52 50 47 45 43 40 38 34 32 30 29 29 28 28 27 27 28 29 30 33 35 36 36 34 32 30 29 28 27 27 29 33 34 33 30 26 22 21 26 31 35 41 47 53 59 64 68 72 75 78 81 82 84 85 87 89 89 90 90 89 86 82 79 75 71 67 63 64 67
61 59 57 55 52 50 47 45 42 39 37 35 33 31 30 29 29 29 29 29 28 29 31 33 35 38 39 38 36 33 31 31 29 28 27 29 34 37 35 31 26 22 21 24 29 35 41 48 54 59 64 69 71 74 77 80 83 84 86 88 90 90 90 91 90 87 83 79 75 73 71 67 64 64
59 57 55 53 51 48 46 43 40 37 35 33 32 31 30 30 29 29 30 30 29 30 32 35 37 40 42 40 38 35 33 32 31 29 27 29 34 38 37 33 27 24 22 24 30 36 43 50 55 59 64 69 72 74 76 79 81 84 86 88 89 90 90 90 89 87 84 80 76 74 74 72 69 66
56 55 53 51 49 46 44 41 38 36 33 32 32 31 30 30 30 30 31 31 30 30 33 36 39 42 44 42 40 37 35 34 33 30 29 30 34 39 39 35 29 26 24 26 32 38 45 52 58 61 64 68 71 73 75 78 80 83 86 87 88 89 89 90 89 88 84 81 77 75 74 72 70 69
53 52 50 48 46 44 42 40 37 35 34 32 30 30 30 29 29 30 31 31 31 31 34 37 40 44 46 44 42 40 38 37 35 33 31 31 34 38 40 37 32 29 28 29 33 39 44 51 57 61 62 65 69 72 74 76 79 82 84 85 86 88 89 89 89 88 85 81 79 77 75 72 70 69
Wind_Direction
324 325 325 325 326 326 327 328 329 331 333 335 337 338 340 342 339 329 315 304 297 290 281 272 262 252 247 245 243 243 242 241 238 236 235 235 235 234 233 232 233 233 233 231 229 228 228 228 227 227 227 227 226 226 227 227 224 223 223 224 224 225 225 224 223 221 221 221 220 219 219 221 223 223
322 322 322 322 323 324 325 326 327 329 330 332 334 334 335 337 338 333 322 308 298 293 286 278 271 263 255 249 245 243 242 242 241 239 236 235 234 234 233 232 232 232 233 233 231 229 228 228 228 228 227 226 225 226 227 227 226 224 223 224 224 224 224 224 223 222 221 220 220 219 218 219 221 223
320 321 321 321 322 323 324 324 326 327 328 329 330 332 332 333 334 332 325 313 300 293 289 281 275 270 263 256 250 246 243 241 241 241 239 236 234 233 233 232 231 232 232 232 232 230 230 229 229 229 228 226 225 226 226 227 227 227 225 224 224 224 224 223 223 222 221 220 220 219 218 218 219 221
320 320 320 321 321 322 323 324 325 326 327 327 328 329 329 330 332 330 325 317 303 292 288 283 277 273 269 264 257 251 247 242 240 240 240 239 236 233 232 232 231 230 231 231 231 231 231 230 230 230 229 228 226 225 225 225 227 228 227 226 225 225 223 223 222 222 221 221 220 219 218 218 219 220
318 319 320 321 321 322 322 323 324 325 325 326 326 327 327 326 329 329 324 318 306 292 286 282 277 274 272 268 263 257 252 246 241 239 240 239 238 235 233 232 231 230 229 230 230 230 230 230 230 230 230 229 227 225 225 225 225 227 227 227 226 225 223 222 222 221 221 221 220 220 220 219 219 220
318 318 319 320 321 321 322 322 324 324 324 324 324 325 325 324 326 327 323 318 308 293 286 281 276 273 271 269 267 263 258 252 245 241 239 239 239 237 235 232 231 230 229 229 229 229 229 229 230 229 229 229 227 225 225 224 224 225 227 227 226 224 223 222 222 221 221 221 221 221 221 221 221 222
317 318 319 320 320 321 322 322 323 323 322 323 323 322 323 324 324 325 322 317 308 295 287 283 278 273 270 268 267 265 263 258 252 245 240 238 237 237 236 234 232 230 229 229 228 228 228 227 228 228 228 228 228 226 225 224 223 224 225 225 224 223 223 222 221 221 221 221 221 221 221 222 223 223
317 318 319 320 320 321 321 321 321 321 321 321 321 321 322 323 324 323 321 316 308 295 287 284 281 275 271 268 266 264 263 261 257 250 243 238 236 236 235 235 234 231 229 229 228 227 226 226 226 226 226 226 227 226 226 225 224 224 224 224 224 223 222 222 222 221 220 221 221 221 222 222 223 224
318 319 319 320 320 320 320 319 319 320 320 320 320 319 320 322 323 321 319 315 307 294 286 285 283 278 273 269 266 262 259 259 258 254 247 241 236 235 234 234 234 233 230 228 228 227 226 225 225 225 225 224 225 226 226 226 225 224 224 224 224 223 222 223 223 222 221 222 222 223 223 223 223 224
318 318 319 319 319 318 318 318 318 319 319 319 318 318 319 321 321 320 317 313 305 294 286 284 283 280 275 270 267 263 257 256 257 255 251 245 238 235 234 233 234 234 232 229 228 227 226 225 224 224 224 223 223 224 225 226 226 226 225 224 224 223 223 224 224 224 224 224 225 225 225 225 225 225
317 317 317 317 317 317 317 317 317 318 318 317 317 317 318 320 319 318 315 311 304 294 287 284 282 279 276 271 268 264 258 253 253 254 252 248 241 236 234 234 233 233 233 231 228 227 227 226 224 223 223 222 222 222 223 225 226 227 226 225 224 224 223 224 225 226 226 227 227 227 227 227 227 227
316 315 315 315 315 316 316 316 316 317 317 316 316 316 317 318 317 316 313 309 302 295 289 285 281 278 275 270 267 264 260 253 250 251 251 250 245 239 235 234 233 233 233 232 230 228 226 226 225 223 223 223 221 221 222 223 224 226 227 226 225 224 223 223 225 226 227 228 229 228 228 228 229 229
314 314 314 314 315 315 315 315 316 316 315 315 315 316 317 317 316 314 312 307 301 297 292 286 281 278 274 270 266 263 260 255 250 248 248 248 247 242 237 235 234 232 232 232 231 230 227 226 225 224 223 223 222 220 220 221 222 224 226 226 225 224 223 223 224 225 227 228 228 228 228 229 229 230
312 313 314 314 314 314 314 315 315 315 314 314 316 317 317 316 315 313 311 307 303 300 295 288 281 277 274 270 266 262 259 256 252 248 245 245 246 244 240 236 234 232 230 230 231 231 229 225 225 224 223 222 222 221 220 220 220 222 224 226 225 224 223 223 222 224 225 226 228 228 227 228 230 230
312 312 313 313 313 313 314 315 314 313 314 315 316 317 317 316 315 313 311 308 305 301 295 288 281 276 273 269 265 262 259 256 253 250 245 242 242 244 243 240 237 233 229 228 229 230 230 226 223 224 224 222 222 221 220 219 219 220 222 224 225 224 223 223 222 222 224 225 227 228 227 227 229 230
311 312 313 313 313 314 314 314 313 313 315 316 317 317 316 315 314 312 310 309 306 301 295 289 282 276 272 268 264 261 258 256 254 251 247 243 240 241 242 243 241 235 228 225 227 229 231 228 223 223 223 222 222 221 220 220 219 219 220 222 224 224 224 223 222 221 222 224 226 227 226 226 229 230
311 312 312 312 313 313 313 313 313 314 315 316 316 316 315 314 312 311 310 309 306 301 295 290 283 276 270 266 263 261 258 255 254 251 248 245 240 238 239 241 243 240 229 222 224 228 230 229 224 222 223 222 222 221 220 220 219 218 219 220 222 224 224 224 223 221 221 223 224 226 225 225 227 229
311 311 311 312 312 312 312 313 314 315 316 316 316 315 313 312 311 310 310 309 305 300 296 291 285 277 271 264 260 259 257 254 253 251 249 246 242 237 237 238 241 242 232 221 220 225 229 229 225 223 223 221 221 221 220 220 220 218 218 219 221 223 223 223 223 221 220 221 222 223 224 224 226 227
310 310 311 311 311 311 312 313 314 315 315 315 315 314 313 311 310 310 310 308 305 300 296 291 285 279 272 266 259 256 255 253 252 250 249 247 243 238 237 237 239 240 234 223 219 221 227 229 224 223 224 221 219 221 221 219 220 219 217 218 219 221 222 223 223 222 220 220 220 221 222 223 224 225
309 309 309 309 309 311 312 314 314 315 315 315 314 314 312 311 310 310 310 308 304 300 296 290 285 279 273 268 261 255 253 251 250 249 248 247 244 240 238 237 238 238 235 228 221 219 224 228 224 222 224 222 219 220 221 220 219 219 217 217 217 219 221 222 222 222 220 219 219 219 220 221 222 223
307 307 307 308 310 311 312 313 314 314 314 314 314 314 312 311 310 310 309 307 304 300 296 291 285 278 272 268 263 257 252 250 249 248 247 246 243 240 238 238 238 238 235 231 225 220 222 225 224 222 223 222 219 219 221 221 220 218 217 216 216 218 219 220 221 221 220 219 219 218 219 220 221 222
306 306 307 309 310 311 311 312 312 313 313 313 314 314 313 311 310 310 308 306 303 299 295 290 283 278 272 268 264 259 253 250 248 248 247 245 243 239 237 237 238 237 235 231 227 225 223 222 221 220 221 222 220 218 219 220 220 218 217 216 215 216 218 219 221 221 220 220 219 218 218 218 219 221
307 307 308 309 310 310 310 310 311 311 312 313 314 315 313 311 310 309 307 304 301 298 293 288 282 277 272 268 264 259 254 250 248 247 246 244 243 240 236 235 236 237 235 230 227 228 225 221 218 218 219 220 220 218 217 219 220 218 217 216 215 215 216 218 219 220 220 220 219 218 217 218 219 220
307 307 308 308 308 309 310 310 310 311 312 314 315 315 313 311 310 308 305 302 300 296 292 288 282 276 272 268 263 259 255 251 248 246 245 243 241 240 237 234 234 236 235 229 225 227 227 222 217 215 216 218 219 218 217 218 219 218 216 215 214 214 215 216 218 219 219 219 219 218 217 218 219 220
306 307 307 307 308 309 310 310 310 311 313 315 316 314 312 311 309 306 303 300 298 295 292 288 282 277 272 267 262 259 255 253 250 246 244 242 241 239 237 234 233 234 234 229 224 225 227 223 217 213 213 216 217 217 216 217 218 218 216 215 214 213 213 214 216 218 218 219 219 218 217 218 219 220
305 306 306 307 308 310 310 310 311 313 315 316 316 314 312 311 308 305 302 299 297 294 290 287 282 277 272 267 262 258 255 253 250 246 243 242 241 238 236 235 233 234 232 228 224 224 225 223 217 212 211 214 215 215 215 216 217 217 216 215 214 213 212 213 214 216 217 218 219 218 217 217 219 220
305 306 307 308 309 310 310 311 313 315 316 317 315 313 312 310 307 304 301 298 296 293 289 285 281 276 271 266 261 258 255 252 249 246 244 242 241 238 235 234 234 234 232 227 224 223 223 222 217 211 210 212 214 214 214 215 216 216 215 214 213 212 212 212 213 215 217 218 218 218 217 218 220 222
305 306 307 309 309 310 311 313 314 316 317 316 315 314 312 310 307 303 300 297 294 291 288 283 279 274 269 264 260 257 255 251 248 247 246 243 241 238 234 232 233 234 232 227 223 222 221 220 216 211 209 210 212 212 213 214 215 215 214 213 212 211 211 211 212 214 216 217 218 218 218 218 220 222
306 306 308 309 310 311 312 314 315 316 317 317 316 314 312 310 306 303 299 296 293 290 286 282 277 271 266 261 258 254 251 248 247 247 246 245 243 240 236 231 230 230 229 224 221 220 220 217 214 210 208 208 210 211 211 213 214 214 213 212 211 211 210 210 211 213 214 216 217 217 217 218 220 221
307 307 308 309 310 311 312 314 315 316 316 317 316 314 311 309 306 302 299 295 291 288 284 280 274 268 262 258 253 249 246 244 244 246 246 246 244 242 237 231 228 227 225 221 218 217 217 215 212 209 207 207 208 209 210 211 212 212 212 211 211 210 209 209 210 212 214 215 216 217 218 219 220 221
307 308 309 309 310 311 313 314 314 315 316 317 315 312 310 307 304 301 297 293 289 286 281 276 270 263 258 252 246 241 239 239 242 245 247 246 244 242 238 233 228 224 221 218 215 215 214 212 210 208 207 206 206 207 208 210 210 211 211 211 210 209 208 208 210 211 213 214 216 217 218 219 220 221
307 308 308 309 310 312 313 313 314 315 316 316 314 311 308 306 302 299 296 291 287 283 278 271 264 257 250 243 237 232 231 235 241 245 247 247 245 242 240 236 230 224 219 214 212 212 213 211 208 206 205 205 206 206 206 207 208 209 210 210 209 208 207 207 209 211 212 214 215 217 218 219 220 220
307 308 309 310 311 312 312 313 313 314 315 314 312 309 307 304 301 297 293 288 284 279 273 265 257 250 241 233 228 225 226 232 241 247 248 246 244 240 237 235 229 223 218 213 210 209 210 209 206 204 204 204 205 205 205 205 207 208 210 210 209 208 206 206 208 210 211 213 214 216 218 219 219 220
307 309 310 311 311 311 312 312 312 313 313 313 311 308 305 302 299 295 290 285 280 274 267 259 250 241 232 224 220 221 225 232 241 246 247 245 243 238 235 233 229 222 218 213 209 207 208 207 204 203 202 202 203 203 203 204 205 207 209 210 209 207 206 206 207 208 210 212 213 215 217 218 218 220
308 309 310 310 311 311 311 310 311 311 311 310 308 306 302 299 296 292 287 282 276 268 261 253 243 232 223 217 216 220 226 232 239 244 246 244 241 237 234 232 229 224 220 215 209 206 206 205 203 201 201 200 201 201 202 203 204 205 207 209 208 207 205 205 206 208 210 211 212 214 216 217 218 220
309 310 310 310 310 310 309 309 309 310 309 308 306 303 299 296 294 290 284 278 272 263 255 247 236 224 217 213 214 218 224 231 237 242 244 241 237 236 235 234 230 227 224 218 210 206 205 204 202 201 199 199 200 200 200 202 203 204 205 206 207 206 205 205 206 208 210 211 212 214 215 217 218 220
310 310 310 310 309 309 308 307 307 307 306 305 303 300 296 293 291 287 281 274 266 257 250 242 230 219 213 211 213 218 223 228 233 239 240 236 234 235 237 236 232 229 228 223 213 207 205 204 202 200 199 199 199 198 199 201 203 203 203 205 206 206 205 205 206 208 209 211 212 214 215 217 218 220
310 310 310 309 309 308 306 305 305 304 303 302 300 296 292 290 288 284 278 270 260 251 244 236 225 216 211 211 213 218 222 226 230 235 236 231 229 234 238 238 234 229 228 225 216 207 204 203 201 199 199 198 198 198 198 200 201 203 203 204 205 205 205 206 207 209 210 211 213 214 215 216 218 219
310 310 309 309 307 306 304 303 303 302 301 299 296 292 288 286 285 282 276 267 256 246 238 231 222 215 211 211 213 217 222 225 227 231 231 226 224 229 237 240 237 231 228 227 219 208 203 202 200 199 198 197 196 196 197 198 200 202 203 203 204 205 205 206 207 209 210 211 213 214 215 217 218 219
309 309 309 307 306 304 302 301 300 299 298 296 293 287 283 281 281 279 273 265 253 243 234 226 218 213 211 211 213 217 221 224 225 227 228 223 219 223 233 239 238 233 228 226 219 209 202 200 199 198 198 197 197 196 196 196 197 200 202 203 204 205 205 206 207 209 210 211 212 214 215 217 219 220
308 308 308 306 304 302 301 299 298 297 296 293 290 285 280 277 277 275 271 263 251 240 232 223 215 212 211 210 212 216 221 223 224 225 225 219 215 219 229 235 234 232 229 224 216 207 199 196 196 197 197 198 198 198 197 196 196 198 200 201 203 204 205 206 207 209 210 211 211 212 213 216 218 220
307 306 305 304 303 301 299 298 297 295 293 290 287 283 278 275 273 271 268 262 251 240 232 222 214 212 211 210 211 215 219 222 223 223 221 216 212 216 225 230 229 228 229 222 210 201 195 192 192 195 196 197 198 199 199 198 197 198 200 201 202 203 204 206 207 208 210 211 211 212 213 216 218 220
305 304 303 302 301 300 298 297 296 294 291 287 285 282 277 273 270 267 264 260 251 240 233 224 216 212 211 210 210 213 217 220 222 222 219 214 210 213 221 225 225 225 225 215 202 194 189 187 189 192 195 197 197 198 199 199 198 199 200 202 202 203 204 205 206 207 209 211 211 212 214 216 218 220
304 303 302 301 300 299 298 297 295 293 291 287 284 281 277 271 267 263 260 258 251 241 233 226 218 213 211 211 209 211 215 219 220 221 219 214 209 211 217 221 222 221 214 202 194 189 186 185 186 189 192 196 197 198 199 200 200 200 201 202 203 203 204 205 206 207 209 210 211 212 213 215 218 220
304 303 302 301 299 299 297 297 296 294 292 289 285 281 277 271 266 261 257 255 251 242 233 226 220 214 212 211 210 209 212 216 219 220 219 214 209 209 213 217 218 213 201 190 186 185 184 185 186 187 190 194 196 197 198 200 201 201 202 203 203 204 204 205 206 207 208 210 212 213 214 215 218 220
Height
10835 10833 10830 10828 10825 10823 10820 10818 10815 10812 10808 10805 10802 10800 10798 10796 10793 10788 10783 10780 10780 10782 10781 10780 10780 10782 10783 10784 10785 10787 10791 10794 10798 10801 10803 10806 10810 10814 10817 10819 10822 10825 10828 10832 10835 10839 10842 10846 10850 10854 10857 10861 10864 10867 10870 10872 10875 10878 10880 10882 10885 10888 10891 10894 10897 10900 10902 10905 10908 10911 10914 10916 10919 10921
10830 10827 10824 10822 10819 10817 10814 10812 10809 10806 10802 10799 10797 10795 10793 10791 10790 10786 10780 10773 10771 10773 10772 10771 10771 10771 10773 10775 10776 10778 10781 10785 10788 10790 10793 10796 10800 10804 10807 10811 10814 10817 10820 10823 10827 10831 10835 10839 10843 10847 10851 10854 10858 10861 10864 10867 10870 10873 10875 10878 10881 10883 10886 10889 10892 10895 10898 10901 10904 10907 10909 10912 10915 10917
10823 10821 10818 10816 10813 10810 10807 10805 10802 10799 10795 10793 10791 10789 10786 10785 10783 10781 10777 10768 10762 10763 10763 10761 10761 10762 10762 10764 10767 10769 10772 10775 10778 10779 10781 10785 10790 10793 10797 10801 10805 10808 10811 10815 10819 10822 10827 10831 10835 10839 10844 10848 10851 10855 10858 10861 10865 10867 10870 10873 10876 10879 10882 10885 10888 10891 10893 10896 10899 10902 10905 10908 10910 10913
10817 10814 10812 10810 10806 10803 10799 10797 10794 10791 10787 10785 10782 10781 10779 10777 10775 10773 10770 10763 10755 10753 10754 10752 10750 10752 10753 10752 10755 10758 10761 10764 10768 10769 10770 10774 10779 10783 10787 10790 10794 10798 10802 10806 10810 10814 10818 10822 10826 10831 10836 10840 10845 10848 10851 10855 10858 10862 10865 10868 10871 10874 10877 10880 10883 10886 10889 10892 10895 10897 10900 10903 10906 10909
10811 10808 10806 10803 10799 10795 10792 10789 10786 10783 10779 10776 10773 10772 10770 10768 10767 10765 10762 10757 10749 10742 10742 10743 10741 10741 10742 10742 10743 10747 10749 10752 10757 10759 10760 10764 10768 10772 10776 10779 10783 10788 10792 10797 10801 10805 10809 10813 10818 10822 10827 10832 10837 10841 10845 10848 10852 10855 10859 10863 10866 10870 10873 10876 10879 10882 10885 10888 10891 10893 10896 10899 10902 10904
10805 10801 10798 10795 10792 10787 10783 10780 10777 10775 10772 10769 10765 10763 10761 10758 10756 10756 10753 10749 10743 10734 10728 10730 10732 10731 10731 10731 10732 10735 10737 10740 10744 10748 10750 10754 10758 10761 10764 10768 10772 10777 10782 10787 10791 10795 10800 10804 10809 10813 10818 10823 10829 10834 10838 10842 10845 10849 10853 10857 10861 10864 10868 10871 10874 10877 10880 10883 10886 10889 10892 10895 10897 10900
10798 10794 10790 10787 10783 10779 10775 10771 10768 10766 10763 10761 10757 10754 10751 10749 10745 10745 10744 10740 10736 10729 10719 10715 10718 10720 10721 10722 10723 10724 10725 10728 10732 10735 10739 10743 10746 10748 10752 10756 10761 10765 10771 10776 10781 10786 10790 10795 10800 10805 10810 10815 10820 10826 10830 10835 10839 10842 10846 10850 10855 10859 10862 10866 10869 10872 10876 10879 10882 10885 10888 10890 10893 10896
10791 10787 10782 10778 10774 10770 10766 10762 10758 10756 10753 10751 10748 10744 10741 10739 10736 10733 10732 10730 10727 10722 10714 10705 10703 10706 10709 10711 10713 10714 10715 10716 10719 10723 10727 10731 10734 10735 10739 10744 10748 10753 10759 10765 10770 10775 10781 10786 10791 10796 10801 10806 10811 10817 10822 10827 10832 10836 10840 10844 10848 10853 10857 10860 10864 10867 10871 10874 10877 10880 10883 10886 10888 10891
10782 10778 10773 10769 10765 10762 10758 10753 10749 10746 10743 10739 10736 10733 10730 10728 10725 10722 10719 10719 10716 10713 10708 10700 10692 10691 10696 10699 10701 10705 10707 10705 10707 10711 10715 10718 10721 10723 10727 10732 10735 10740 10747 10753 10759 10765 10771 10776 10782 10787 10792 10797 10803 10808 10814 10819 10825 10829 10833 10838 10842 10846 10851 10855 10858 10862 10865 10869 10872 10876 10879 10881 10884 10887
10773 10768 10764 10760 10757 10754 10750 10745 10740 10736 10732 10728 10725 10722 10719 10716 10714 10711 10708 10706 10705 10702 10699 10694 10685 10680 10683 10687 10689 10694 10697 10696 10696 10700 10703 10704 10708 10713 10717 10720 10724 10728 10734 10742 10748 10755 10761 10767 10772 10778 10783 10789 10794 10799 10805 10811 10817 10822 10827 10831 10835 10840 10844 10849 10852 10856 10860 10863 10867 10871 10874 10877 10880 10882
10764 10761 10757 10753 10749 10746 10742 10737 10731 10726 10722 10718 10714 10710 10708 10705 10702 10699 10696 10693 10692 10691 10689 10685 10679 10673 10671 10674 10678 10682 10685 10686 10686 10688 10691 10693 10697 10703 10708 10710 10713 10717 10723 10730 10737 10744 10750 10756 10762 10768 10774 10780 10785 10791 10796 10803 10809 10814 10819 10824 10828 10833 10837 10842 10846 10850 10854 10858 10861 10865 10868 10872 10875 10877
10757 10754 10750 10746 10742 10738 10733 10728 10722 10717 10713 10709 10704 10699 10696 10693 10690 10687 10684 10681 10680 10679 10678 10674 10669 10665 10661 10662 10667 10669 10672 10675 10677 10678 10681 10683 10686 10693 10697 10698 10701 10706 10712 10718 10725 10732 10739 10745 10752 10758 10765 10771 10776 10782 10788 10794 10800 10806 10812 10817 10822 10826 10831 10835 10840 10844 10848 10852 10856 10859 10863 10866 10869 10872
10749 10746 10742 10738 10734 10729 10724 10719 10713 10708 10704 10699 10694 10689 10683 10680 10677 10674 10671 10669 10668 10667 10666 10663 10659 10656 10652 10651 10655 10658 10659 10663 10667 10669 10671 10673 10675 10680 10685 10687 10689 10694 10701 10707 10714 10720 10727 10734 10741 10748 10755 10761 10767 10773 10780 10785 10792 10798 10803 10809 10814 10819 10824 10828 10833 10837 10842 10846 10850 10853 10857 10860 10864 10867
10740 10736 10732 10728 10725 10720 10716 10710 10704 10699 10695 10690 10684 10678 10671 10666 10663 10661 10658 10657 10657 10655 10653 10651 10649 10647 10643 10641 10643 10645 10647 10651 10655 10658 10662 10663 10664 10668 10673 10676 10678 10682 10689 10697 10703 10708 10713 10722 10731 10737 10744 10751 10757 10765 10772 10777 10783 10789 10794 10801 10806 10812 10817 10821 10826 10831 10835 10840 10844 10848 10851 10855 10858 10862
10731 10727 10723 10718 10714 10710 10706 10700 10695 10690 10684 10678 10672 10666 10660 10654 10650 10649 10647 10646 10645 10643 10641 10639 10638 10637 10635 10632 10631 10633 10636 10639 10643 10647 10651 10653 10654 10658 10663 10666 10667 10669 10677 10687 10694 10696 10700 10710 10721 10727 10734 10741 10747 10755 10763 10768 10774 10780 10786 10792 10798 10804 10810 10815 10820 10825 10830 10834 10838 10842 10846 10849 10853 10856
10724 10719 10714 10709 10703 10699 10694 10689 10684 10679 10673 10666 10660 10654 10648 10643 10639 10637 10637 10636 10634 10631 10629 10628 10627 10626 10626 10623 10620 10622 10625 10627 10630 10635 10639 10642 10645 10649 10653 10655 10655 10656 10667 10680 10685 10685 10688 10698 10711 10718 10723 10730 10737 10745 10753 10759 10765 10771 10777 10784 10790 10797 10803 10808 10813 10819 10824 10828 10833 10837 10841 10844 10848 10851
10716 10712 10707 10701 10694 10688 10684 10679 10673 10667 10661 10654 10648 10643 10637 10633 10629 10627 10626 10626 10623 10619 10617 10617 10615 10615 10617 10615 10611 10611 10614 10616 10618 10623 10627 10630 10635 10641 10644 10645 10643 10645 10658 10672 10676 10676 10676 10685 10700 10708 10712 10719 10727 10735 10743 10749 10756 10763 10769 10775 10782 10789 10795 10801 10806 10812 10817 10822 10827 10831 10835 10839 10842 10846
10707 10703 10698 10692 10685 10679 10673 10668 10663 10657 10651 10644 10638 10632 10627 10622 10618 10616 10615 10614 10611 10608 10606 10605 10604 10603 10605 10605 10604 10602 10603 10606 10607 10611 10615 10619 10625 10632 10634 10634 10633 10636 10648 10661 10668 10667 10664 10672 10689 10698 10700 10708 10718 10725 10733 10740 10746 10754 10761 10768 10775 10781 10787 10794 10800 10805 10811 10816 10821 10826 10830 10834 10837 10840
10698 10693 10688 10682 10676 10670 10663 10657 10652 10647 10641 10635 10629 10623 10617 10611 10606 10604 10603 10602 10600 10597 10596 10595 10593 10593 10593 10594 10595 10593 10593 10596 10597 10600 10603 10607 10615 10621 10623 10623 10623 10627 10637 10649 10657 10658 10654 10661 10679 10687 10687 10698 10710 10716 10723 10731 10737 10745 10753 10760 10767 10773 10780 10787 10793 10799 10804 10809 10815 10820 10824 10828 10832 10835
10688 10683 10678 10673 10667 10661 10653 10645 10640 10637 10631 10625 10620 10614 10607 10600 10595 10593 10592 10590 10588 10587 10586 10585 10584 10583 10582 10582 10584 10585 10585 10586 10588 10590 10593 10597 10604 10609 10611 10612 10613 10617 10626 10636 10644 10649 10647 10652 10668 10676 10678 10690 10702 10708 10714 10722 10728 10736 10745 10752 10759 10766 10773 10780 10786 10793 10798 10803 10809 10814 10819 10823 10826 10830
10679 10674 10668 10664 10658 10650 10643 10636 10631 10627 10622 10616 10611 10604 10597 10590 10585 10582 10580 10579 10577 10576 10576 10575 10574 10573 10572 10572 10573 10575 10577 10577 10578 10581 10583 10587 10593 10597 10600 10601 10602 10607 10615 10623 10633 10641 10640 10643 10656 10666 10670 10680 10692 10699 10706 10712 10719 10727 10736 10744 10751 10758 10765 10773 10779 10786 10792 10797 10803 10808 10813 10817 10820 10824
10669 10663 10658 10653 10648 10641 10634 10628 10623 10618 10613 10608 10601 10594 10587 10580 10575 10572 10570 10568 10567 10566 10566 10565 10564 10563 10563 10563 10563 10565 10567 10568 10570 10572 10574 10578 10582 10586 10589 10590 10592 10596 10603 10613 10624 10629 10629 10633 10645 10654 10661 10671 10681 10689 10695 10702 10709 10718 10726 10735 10743 10750 10758 10766 10773 10780 10786 10791 10796 10802 10806 10811 10815 10819
10658 10652 10647 10642 10638 10632 10625 10619 10614 10609 10604 10599 10592 10585 10578 10571 10566 10563 10561 10558 10557 10556 10556 10556 10555 10554 10554 10554 10555 10556 10557 10559 10561 10563 10566 10568 10571 10574 10577 10580 10582 10584 10591 10604 10614 10615 10615 10622 10634 10643 10652 10661 10668 10676 10684 10691 10699 10708 10716 10725 10734 10742 10750 10757 10765 10772 10779 10785 10790 10795 10800 10805 10809 10814
10647 10641 10636 10631 10627 10622 10616 10611 10606 10600 10595 10589 10582 10575 10569 10564 10559 10555 10551 10549 10548 10546 10545 10546 10546 10546 10546 10546 10547 10547 10548 10550 10553 10555 10557 10558 10560 10563 10566 10571 10573 10573 10580 10594 10602 10602 10603 10611 10623 10634 10643 10649 10654 10663 10673 10681 10689 10698 10707 10715 10724 10733 10741 10749 10757 10765 10772 10778 10784 10789 10794 10799 10804 10808
10637 10631 10625 10620 10616 10611 10606 10601 10596 10591 10586 10579 10573 10567 10561 10556 10551 10547 10543 10541 10539 10538 10536 10536 10537 10538 10538 10538 10539 10539 10540 10542 10545 10547 10548 10549 10551 10554 10557 10561 10564 10564 10570 10582 10589 10589 10591 10599 10612 10624 10632 10637 10642 10652 10663 10671 10679 10689 10698 10707 10715 10724 10733 10741 10750 10758 10765 10771 10777 10783 10788 10794 10798 10801
10627 10621 10615 10610 10605 10601 10595 10590 10586 10581 10576 10570 10564 10558 10552 10548 10543 10539 10535 10533 10531 10530 10529 10528 10529 10530 10530 10531 10532 10532 10533 10535 10537 10538 10540 10541 10543 10546 10549 10552 10554 10556 10562 10570 10576 10578 10581 10588 10600 10613 10622 10626 10632 10643 10654 10663 10671 10680 10690 10699 10707 10716 10725 10734 10743 10751 10758 10765 10771 10777 10782 10787 10791 10794
10617 10611 10605 10600 10596 10591 10585 10580 10576 10571 10566 10561 10554 10549 10544 10540 10536 10532 10528 10525 10524 10523 10522 10522 10522 10523 10523 10524 10525 10526 10527 10528 10530 10530 10532 10534 10536 10539 10542 10544 10547 10549 10554 10560 10565 10568 10571 10578 10589 10602 10611 10617 10625 10637 10647 10654 10662 10671 10681 10690 10699 10708 10718 10728 10736 10744 10751 10758 10764 10770 10776 10781 10785 10789
10607 10601 10595 10591 10587 10581 10576 10570 10565 10561 10556 10551 10545 10540 10535 10531 10528 10524 10521 10519 10517 10516 10516 10516 10516 10516 10517 10518 10519 10520 10521 10522 10523 10524 10525 10528 10530 10533 10535 10538 10540 10542 10546 10552 10556 10558 10562 10569 10579 10591 10600 10608 10617 10629 10637 10645 10654 10664 10673 10681 10691 10701 10711 10720 10729 10737 10745 10752 10758 10765 10771 10776 10780 10783
10598 10591 10586 10581 10576 10571 10566 10560 10556 10551 10546 10541 10536 10531 10526 10523 10520 10517 10514 10512 10511 10510 10510 10510 10510 10511 10512 10513 10514 10514 10515 10516 10517 10518 10520 10522 10525 10527 10529 10531 10534 10536 10539 10543 10547 10551 10555 10561 10570 10580 10589 10597 10608 10619 10628 10637 10647 10656 10666 10675 10685 10694 10704 10713 10722 10730 10739 10746 10752 10759 10764 10768 10772 10776
10589 10583 10577 10572 10566 10561 10556 10551 10546 10541 10537 10532 10527 10522 10519 10516 10513 10511 10508 10506 10505 10505 10504 10505 10505 10506 10506 10508 10509 10510 10511 10512 10513 10514 10516 10518 10520 10522 10523 10526 10528 10530 10533 10537 10541 10544 10548 10555 10563 10572 10580 10588 10599 10610 10620 10630 10640 10650 10660 10670 10679 10688 10698 10708 10717 10725 10733 10739 10746 10751 10756 10761 10766 10772
10581 10575 10569 10562 10557 10551 10546 10541 10536 10531 10527 10524 10519 10515 10511 10509 10507 10504 10502 10501 10500 10500 10500 10500 10500 10501 10502 10503 10505 10506 10507 10508 10509 10511 10513 10515 10516 10518 10520 10522 10524 10526 10528 10532 10535 10538 10543 10549 10557 10565 10573 10582 10592 10602 10614 10625 10635 10645 10655 10664 10672 10682 10692 10701 10710 10718 10725 10732 10739 10745 10751 10757 10762 10767
10571 10565 10559 10553 10547 10542 10536 10531 10526 10522 10518 10515 10512 10508 10505 10503 10500 10498 10497 10496 10495 10495 10495 10496 10496 10496 10497 10499 10501 10502 10504 10505 10506 10508 10510 10511 10513 10514 10516 10518 10520 10522 10524 10527 10531 10534 10539 10545 10551 10559 10568 10577 10586 10597 10608 10620 10630 10640 10649 10657 10666 10674 10683 10693 10702 10710 10718 10725 10733 10740 10746 10751 10756 10760
10561 10555 10549 10544 10538 10532 10527 10522 10517 10514 10510 10507 10505 10502 10499 10496 10495 10493 10492 10491 10491 10491 10491 10492 10492 10492 10494 10496 10497 10499 10501 10503 10504 10505 10507 10508 10510 10511 10512 10513 10516 10518 10520 10523 10526 10530 10535 10540 10547 10554 10562 10571 10581 10592 10603 10614 10624 10634 10642 10650 10659 10667 10676 10686 10694 10702 10711 10719 10727 10733 10738 10743 10748 10753
10550 10545 10539 10534 10528 10523 10518 10514 10509 10506 10503 10500 10498 10495 10492 10490 10489 10487 10486 10486 10486 10486 10487 10487 10488 10489 10490 10492 10494 10496 10498 10500 10502 10503 10504 10505 10506 10507 10508 10510 10512 10514 10516 10519 10523 10527 10530 10536 10542 10549 10556 10565 10575 10586 10597 10607 10618 10627 10635 10643 10652 10660 10669 10678 10687 10695 10703 10710 10716 10723 10729 10734 10740 10745
10540 10534 10529 10523 10518 10514 10509 10505 10501 10499 10496 10494 10492 10489 10486 10484 10483 10482 10481 10481 10481 10482 10482 10483 10484 10486 10487 10489 10491 10493 10495 10497 10499 10500 10502 10503 10503 10504 10505 10506 10509 10511 10513 10516 10519 10523 10527 10532 10538 10544 10552 10560 10570 10581 10592 10601 10610 10619 10628 10637 10645 10653 10663 10672 10681 10688 10694 10700 10707 10714 10721 10727 10732 10738
10529 10524 10518 10513 10509 10505 10500 10496 10493 10491 10489 10487 10485 10483 10480 10479 10478 10477 10477 10476 10477 10477 10478 10479 10480 10482 10484 10486 10488 10490 10492 10495 10497 10498 10499 10500 10501 10502 10502 10504 10506 10508 10510 10513 10516 10520 10523 10528 10534 10541 10549 10558 10567 10577 10587 10596 10604 10611 10619 10628 10637 10646 10656 10665 10672 10679 10686 10693 10701 10708 10714 10720 10725 10730
10518 10513 10508 10504 10499 10495 10491 10488 10486 10484 10482 10481 10479 10477 10475 10473 10472 10472 10471 10472 10472 10473 10474 10475 10477 10479 10481 10482 10484 10487 10489 10492 10494 10495 10496 10497 10498 10499 10500 10501 10504 10506 10507 10509 10513 10517 10521 10525 10532 10539 10547 10555 10563 10572 10581 10590 10598 10606 10614 10623 10633 10642 10651 10659 10666 10673 10681 10689 10696 10702 10707 10712 10718 10723
10508 10503 10499 10494 10490 10487 10483 10480 10479 10477 10476 10474 10473 10471 10469 10468 10467 10467 10467 10467 10467 10468 10469 10471 10473 10475 10477 10479 10481 10483 10486 10488 10490 10492 10493 10495 10496 10497 10497 10498 10501 10503 10505 10506 10509 10513 10518 10523 10530 10536 10543 10550 10559 10569 10577 10586 10595 10603 10612 10620 10629 10638 10647 10655 10663 10670 10677 10684 10690 10695 10700 10706 10711 10717
10498 10493 10489 10485 10482 10478 10475 10473 10471 10470 10469 10468 10466 10465 10463 10462 10462 10461 10461 10462 10462 10463 10465 10467 10469 10471 10473 10476 10478 10480 10482 10485 10487 10489 10490 10492 10493 10494 10495 10496 10498 10501 10502 10503 10506 10510 10515 10520 10527 10533 10538 10546 10554 10561 10570 10581 10592 10600 10607 10614 10622 10632 10642 10650 10657 10664 10672 10679 10685 10690 10695 10701 10707 10713
10488 10484 10480 10477 10474 10471 10468 10466 10465 10463 10462 10461 10460 10459 10458 10457 10456 10456 10456 10457 10457 10458 10460 10462 10464 10467 10469 10472 10474 10477 10479 10481 10483 10485 10487 10489 10491 10492 10492 10493 10495 10498 10500 10501 10503 10507 10512 10518 10524 10529 10535 10542 10548 10554 10562 10572 10582 10590 10599 10608 10617 10626 10634 10642 10650 10658 10666 10672 10679 10685 10692 10698 10704 10709
10479 10476 10473 10469 10466 10464 10461 10460 10458 10457 10455 10454 10453 10452 10452 10451 10451 10451 10451 10451 10452 10453 10454 10457 10459 10462 10465 10468 10471 10473 10475 10477 10480 10482 10484 10486 10488 10489 10490 10491 10494 10496 10498 10499 10501 10504 10509 10515 10521 10526 10532 10538 10545 10552 10560 10566 10572 10580 10590 10599 10608 10617 10626 10635 10643 10652 10659 10666 10674 10681 10688 10693 10697 10702
10471 10468 10465 10462 10459 10457 10455 10453 10452 10451 10449 10448 10447 10446 10446 10446 10445 10445 10445 10445 10447 10448 10449 10451 10454 10457 10460 10463 10466 10469 10471 10473 10476 10479 10481 10483 10485 10486 10487 10489 10492 10494 10496 10497 10499 10502 10507 10512 10518 10523 10529 10535 10542 10550 10556 10562 10568 10577 10584 10590 10598 10608 10618 10628 10637 10645 10652 10660 10669 10677 10681 10685 10689 10693
10462 10459 10457 10454 10452 10449 10447 10446 10445 10444 10443 10442 10441 10440 10440 10440 10439 10439 10439 10440 10441 10443 10445 10446 10448 10451 10455 10458 10462 10465 10467 10469 10472 10475 10477 10479 10481 10483 10485 10487 10490 10492 10494 10496 10498 10501 10505 10509 10514 10520 10526 10532 10539 10546 10552 10558 10565 10572 10579 10586 10595 10603 10612 10621 10630 10638 10646 10654 10662 10668 10672 10676 10680 10685
10454 10451 10448 10446 10444 10442 10440 10438 10438 10437 10436 10435 10434 10434 10433 10433 10433 10433 10433 10434 10435 10437 10439 10441 10443 10446 10450 10453 10457 10460 10463 10466 10468 10471 10474 10476 10478 10480 10482 10485 10488 10490 10492 10494 10496 10499 10503 10506 10511 10516 10523 10529 10536 10543 10549 10556 10562 10568 10575 10583 10592 10600 10607 10616 10624 10632 10639 10647 10654 10659 10664 10668 10674 10678
10448 10445 10441 10439 10436 10434 10432 10431 10430 10430 10429 10428 10428 10427 10427 10427 10427 10427 10427 10428 10429 10431 10433 10436 10438 10441 10444 10448 10452 10456 10459 10461 10464 10467 10470 10472 10475 10477 10480 10483 10485 10488 10489 10492 10494 10497 10501 10505 10510 10515 10520 10527 10534 10541 10547 10553 10559 10566 10572 10580 10588 10595 10603 10611 10619 10626 10634 10641 10648 10653 10658 10663 10667 10672